Weather Service Report


775 
ASUS41 KAKQ 310410
RWRAKQ

REGIONAL WEATHER ROUNDUP
NATIONAL WEATHER SERVICE WAKEFIELD VA
1200 AM EDT THU JUL 31 2014

Note: "fair" indicates few or no clouds below 12,000 feet with no
significant weather and/or obstructions to visibility. * = Denotes
station may not report precipitation (e.g., rain,snow,etc.),
thunder or fog.

VAZ042-051-052>054-056-310500-
NORTHERN VIRGINIA
  
CITY           SKY/WX    TMP DP  RH WIND       PRES   REMARKS
WASH NATIONAL  CLEAR     71  58  63 S6        30.07R                  
DULLES         PTCLDY    63  56  78 S3        30.06S                  
FORT BELVOIR   CLEAR     60  58  94 CALM      30.07R                  
QUANTICO       CLEAR     65  61  87 NW6       30.08R                  
FREDERICKSBRG* CLEAR     65  63  93 CALM      30.06S                  
STAFFORD*      CLEAR     59  59 100 CALM      30.11R                  
WARRENTON      CLEAR     59  59 100 CALM      30.07S FOG              
CULPEPER*      CLEAR    N/A N/A N/A CALM      30.08R                  
MANASSAS*      NOT AVBL                                               
LEESBURG*      CLEAR     64  61  88 SW3       30.07S                  
WINCHESTER     MOCLDY    66  55  68 CALM      30.07S                  
$$

VAZ048-049-060>072-079>083-310500-
CENTRAL AND SOUTH CENTRAL VIRGINIA...AND NORTH CENTRAL NORTH CAROLINA
  
CITY           SKY/WX    TMP DP  RH WIND       PRES   REMARKS
RICHMOND       CLEAR     67  59  75 SE3       30.07F                  
CHESTERFIELD*  CLEAR    N/A N/A N/A CALM      30.09S                  
HANOVER        CLEAR     62  56  80 CALM      30.09S                  
TAPPAHANNOCK*  CLEAR     61  58  88 CALM      30.08S                  
CHARLOTTSVILLE CLEAR     62  58  86 CALM      30.08R                  
ORANGE*        CLEAR     61  57  88 CALM      30.09S                  
LOUISA*        CLEAR     63  57  82 CALM      30.07S                  
FARMVILLE*     CLEAR     61  59  94 CALM      30.07R                  
SOUTH HILL*    CLEAR     64  64 100 CALM      30.13F                  
ROANOKE RAPIDS NOT AVBL                                               
RALEIGH        MOCLDY    69  64  84 CALM      30.08F                  
$$

VAZ088>098-310500-
SOUTHEAST VIRGINIA
  
CITY           SKY/WX    TMP DP  RH WIND       PRES   REMARKS
NORFOLK        CLEAR     70  60  70 S5        30.08S                  
VIRGINIA BEACH CLEAR     70  61  73 S3        30.08S                  
NORFOLK NAVAL  PTCLDY    72  61  68 S5        30.09F                  
WEST POINT*    CLEAR     66  62  85 CALM      30.10R                  
NEWPORT NEWS   CLEAR     70  60  70 CALM      30.08S                  
LANGLEY AFB    CLEAR     71  63  75 S3        30.08S                  
FORT EUSTIS    CLEAR     71  61  70 S7        30.07R                  
WILLIAMSBURG*  CLEAR     73  64  73 S5        30.09S                  
FRANKLIN*      CLEAR     66  63  88 SE3       30.09S                  
WAKEFIELD      CLEAR     67  62  84 CALM      30.09R                  
$$

VAZ020-022-025-037-045-310500-
WESTERN AND SOUTHWEST VIRGINIA
  
CITY           SKY/WX    TMP DP  RH WIND       PRES   REMARKS
STAUNTON*      MOCLDY    58  55  87 CALM      30.12R                  
HOT SPRINGS VA CLEAR     56  48  73 W9        30.21R                  
LYNCHBURG      CLEAR     61  58  90 CALM      30.11S                  
DANVILLE       CLEAR     65  61  87 CALM      30.09S                  
MARTINSVILLE   CLEAR     60  59  97 CALM      30.13S                  
ROANOKE        PTCLDY    63  57  81 CALM      30.13R                  
BLACKSBURG     CLEAR     57  57 100 CALM        N/A                   
DUBLIN*        CLEAR     60  55  83 CALM      30.16S                  
MARION*        CLEAR     57  55  91 CALM      30.20S                  
HILLSVILLE*    CLEAR     61  54  78 CALM      30.17S                  
RICHLANDS*     MOCLDY    64  56  75 CALM      30.17S                  
WISE*          PTCLDY    61  59  94 CALM      30.18S                  
ABINGDON*      PTCLDY    61  58  90 CALM      30.15F                  
$$

MDZ021>025-VAZ099-100-310500-
SOUTHERN MARYLAND AND THE DELMARVA PENINSULA
  
CITY           SKY/WX    TMP DP  RH WIND       PRES   REMARKS
PATUXENT RIVER CLEAR     66  57  72 S6        30.07S                  
BAY BRIDGE APT   N/A     72  54  53 S5        30.06R                  
LEONARDTOWN    CLEAR     63  55  77 CALM      30.09R                  
DOVER          CLEAR     62  57  85 SE5       30.05S                  
GEORGETOWN     CLEAR     62  58  86 S8        30.08S                  
EASTON         CLEAR     68  59  74 CALM      30.10S                  
CAMBRIDGE      CLEAR     61  55  82 CALM      30.07S                  
SALISBURY      CLEAR     62  54  74 CALM      30.07F                  
OCEAN CITY     CLEAR     59  57  93 CALM      30.07F                  
WALLOPS ISLAND CLEAR     66  60  81 CALM      30.09S                  
ACCOMACK*        N/A     63  59  88 S3        30.08S                  
$$

NCZ012>017-030>032-310500-
EASTERN NORTH CAROLINA
  
CITY           SKY/WX    TMP DP  RH WIND       PRES   REMARKS
ELIZABETH CITY CLEAR     69  63  81 SE3       30.09F                  
AHOSKIE*       CLEAR     68  64  85 CALM      30.09F                  
EDENTON*       CLEAR     71  63  76 E5        30.09F                  
CURRITUCK*     CLEAR     66  58  74 CALM      30.10S                  
KILL DEVIL HLS CLEAR     72  60  65 CALM      30.08S                  
MANTEO         NOT AVBL                                               
CAPE HATTERAS  CLOUDY    73  65  75 NE5       30.08S                  
GOLDSBORO      MOCLDY    70  69  98 E6        30.06S                  
WASHINGTON     MOCLDY    68  64  84 CALM      30.10R                  
GREENVILLE     MOCLDY    72  66  83 E3        30.10S                  
NEW BERN       CLOUDY    72  67  84 CALM      30.10R                  
WILMINGTON     PTCLDY    72  68  87 NE5       30.06S                  
$$

VAZ048-310500-
ELSEWHERE
  
CITY           SKY/WX    TMP DP  RH WIND       PRES   REMARKS
HARRISBURG PA  RAIN      65  61  87 W8        30.07R                  
BALTIMORE      CLEAR     65  56  72 CALM      30.06R                  
ANNAPOLIS      CLEAR     68  57  68 CALM      30.06R                  
ANDREWS AFB    CLEAR     64  57  78 S7        30.07R                  
WILMINGTON DE  PTCLDY    68  54  60 SW6       30.07R                  
PHILADELPHIA   PTCLDY    70  56  61 SW7       30.06S                  
WILDWOOD NJ*   CLEAR     63  55  77 CALM      30.08S                  
ATLANTIC CITY  CLEAR     64  56  75 SW5       30.07S                  
HENDERSON NC   MOCLDY    66  63  89 SE3       30.08F                  
GREENSBORO     MOCLDY    70  62  76 SE5       30.10R                  
ROCKY MOUNT    MOCLDY    71  65  81 CALM      30.08F                  
FAYETTEVILLE   CLOUDY    72  65  78 N3        30.07S                  
CHARLOTTE      CLOUDY    73  62  68 S3        30.09R                  
$$

VAZ100-310500-
MARINE
  
STATION/POSITION TIME  TEMP    WIND        PRES    WAVE   SWELL
                       AIR SEA DIR/SP/G            HT/PER HT/PER
                 (UTC) (F)     (DEG/KT/KT) (MB)    (FT/S) (FT/S)
44066 TX TWR #4  0400   72 75  240/  6/  8 1018.3S   3/ 8   3/ 8
CAPE MAY NJ      0400   69 77  160/  4/  5 1017.8S
LEWES DE         0400   68 74  190/  3/  4 1018.0S
15NM E FENWICK I 0400   73 74              1018.5F   2/ 8
OCEAN-CITY-INLET 0400   68 72  300/  2/  2 1017.9F
WACHAPREAGUE VA  0400   74 80  190/  8/  9 1018.4F
THOMAS POINT MD  0400   74 77  220/  7/  8 1018.4R
GOOSES REEF MD   0400   75     170/  8/ 10 1018.4R
COVE POINT MD    0400   71     210/  8/  8 1018.0R
SOLOMONS ISLAND  0400      80                N/A
BISHOPS HEAD MD  0400   74 78  180/  7/  8 1017.8S
PINEY POINT MD   0400          190/  9/ 10   N/A
POTOMAC MD       0400   75     170/  8/ 10 1017.4S
CAMBRIDGE MD     0400   69 79  200/  2/  4 1017.8R
LEWISETTA VA     0400   70 78  160/  2/  3 1018.1R
RAPPAHANNOCK LGT 0400          170/ 12/ 13 1018.9S
STINGRAY PT      0400   76     200/ 10/ 10 1018.9F
YORK RVR RNG VA  0400   74     190/ 11/ 12 1018.0S
YORKTOWN VA      0400   72 80  180/  4/  5 1018.4R
JAMESTOWN VA     0400   70     190/  8/ 10   N/A
DOMINION TERM VA 0400   74     170/ 12/ 14 1018.5S
KIPTOPEKE VA     0400      81  160/  7/  8   N/A
CHES BAY BRIDGE  0400   74 78  150/  8/ 11 1018.1S
CAPE HENRY VA    0400   71     160/  6/  8 1017.5S
WILLOUBY STN VA  0400          170/ 11/ 12 1017.8S
S CRANEY ISL VA  0400          160/  8/ 11 1018.7S
CAPE HENRY BUOY  0400      76                N/A     2/ 8
1ST LANDING BUOY 0400   74     160/  8/ 10 1018.2F
CAPE CHARLES BUO 0400      76                N/A     2/ 8
OFFSHORE WE BUOY 0400      78                N/A     2/ 8
64NM E OF VA BCH 0300   74 78   90/  6/  8 1018.6R   2/ 7   2/ 7
DUCK PIER NC     0400   75 77  120/  8/ 10 1018.2R
44056 DUCK FRF   0300                        N/A     2/ 7
OREGON INLET NC  0400   74 79   80/  6/  9 1018.9R
HATTERAS NC      0400   75 80   60/  5/  6 1019.0F
DIAMOND SHLS NC  0400          VRB 10/ 14  1018.1R   4/ 7   3/ 7
CAPE LOOKOUT NC  0300   79      60/ 12/ 14 1018.1R
$$

Return to Home page


Western Regional Climate Center, wrcc@dri.edu